This is the latest recevied weather packets stored in our database for station/object SA7AHC. If no packets are shown the sender has not sent any weather packets the latest 1 day(s).
| Time | Temp. | Humidity | Pressure | Rain* | Wind** | Luminosity | Snow |
|---|---|---|---|---|---|---|---|
| 1778076364 | 12.78° C | 39% | 1013.1 hPa | 0 mm | - | 482 W/m² | - |
| 1778074551 | 12.22° C | 38% | 1012.7 hPa | 0 mm | - | 380 W/m² | - |
| 1778073956 | 12.22° C | 41% | 1012.7 hPa | 0 mm | - | 325 W/m² | - |
| 1778073341 | 12.22° C | 41% | 1012.7 hPa | 0 mm | - | 496 W/m² | - |
| 1778071539 | 12.78° C | 39% | 1012.9 hPa | 0 mm | - | 538 W/m² | - |
| 1778070335 | 12.78° C | 42% | 1012.8 hPa | 0 mm | - | 445 W/m² | - |
| 1778067324 | 12.22° C | 43% | 1013 hPa | 0 mm | - | 313 W/m² | - |
| 1778063713 | 12.22° C | 43% | 1013.4 hPa | 0 mm | - | 613 W/m² | - |
| 1778063108 | 11.67° C | 44% | 1013.3 hPa | 0 mm | - | 582 W/m² | - |
| 1778061308 | 11.11° C | 45% | 1013.2 hPa | 0 mm | - | 397 W/m² | - |
| 1778060707 | 11.11° C | 42% | 1013.1 hPa | 0 mm | - | 397 W/m² | - |
| 1778060107 | 11.67° C | 42% | 1013 hPa | 0 mm | - | 480 W/m² | - |
| 1778059507 | 11.67° C | 45% | 1013 hPa | 0 mm | - | 388 W/m² | - |
| 1778058307 | 11.11° C | 44% | 1013.3 hPa | 0 mm | - | 439 W/m² | - |
| 1778057709 | 11.11° C | 43% | 1013.3 hPa | 0 mm | - | 299 W/m² | - |
| 1778051698 | 8.89° C | 44% | 1013 hPa | 0 mm | - | 276 W/m² | - |
| 1778051095 | 8.89° C | 43% | 1013 hPa | 0 mm | - | 457 W/m² | - |
| 1778050493 | 8.33° C | 42% | 1012.9 hPa | 0 mm | - | 422 W/m² | - |
| 1778047494 | 6.67° C | 43% | 1012.8 hPa | 0 mm | - | 86 W/m² | - |
| 1778046294 | 6.67° C | 47% | 1012.5 hPa | 0 mm | - | 51 W/m² | - |
| 1778045684 | 6.11° C | 51% | 1012.5 hPa | 0 mm | - | 47 W/m² | - |
| 1778045084 | 5.56° C | 52% | 1012.5 hPa | 0 mm | - | 44 W/m² | - |
| 1778042675 | 4.44° C | 63% | 1012.2 hPa | 0 mm | - | 30 W/m² | - |
| 1778040875 | 2.78° C | 70% | 1012.1 hPa | 0 mm | - | 19 W/m² | - |
| 1778040277 | 2.22° C | 72% | 1011.9 hPa | 0 mm | - | 18 W/m² | - |
* Rain latest hour (hover to see other rain measurements)
** Current wind speed in m/s (hover to see current wind gust speed)